Tracking 17150 objects as of 4-August-2015
HD Live streaming from Space Station

COSMOS 1596

Track COSMOS 1596 now!
COSMOS 1596 is classified as:


NORAD ID: 15267
Int'l Code: 1984-096A
Perigee: 4,743.9 km
Apogee: 35,670.6 km
Inclination: 67.6 °
Period: 718.7 minutes
Semi major axis: 26578 km
RCS: 8.4284 m2 (large)
Launch date: September 7, 1984
Source: Commonwealth of Independent States (former USSR) (CIS)
Your satellite tracking list
Your tracking list is empty





NASA's NSSDC Master Catalog

Two Line Element Set (TLE):
1 15267U 84096A   15215.41555950 -.00000847  00000-0 -60686+0 0  9992
2 15267 067.6440 045.3803 5818046 106.3486 328.7511 02.00360800226425

Source of the keplerian elements: AFSPC

N2YO: 374